Regional Weather Roundup
Issued by NWS

Home | Current Version | Previous Version | Text Only | Print | Product List | Glossary Off
Versions: 1 2 3 4 5 6 7 8 9 10 11 12 13 14 15 16 17 18 19 20 21 22 23 24 25 26 27 28 29 30 31 32 33 34 35 36 37 38 39 40 41 42 43 44 45 46 47 48 49 50

000
ASUS43 KMKX 191100
RWRWI

WISCONSIN REGIONAL WEATHER ROUNDUP
NATIONAL WEATHER SERVICE MILWAUKEE/SULLIVAN WI
600 AM CDT SUN APR 19 2015

NOTE: "FAIR" INDICATES FEW OR NO CLOUDS BELOW 12,000 FEET WITH NO
SIGNIFICANT WEATHER AND/OR OBSTRUCTIONS TO VISIBILITY.

WIZ001-002-006>008-014>016-023>028-191200-
NORTHWEST WISCONSIN

CITY           SKY/WX    TMP DP  RH WIND       PRES   REMARKS
SUPERIOR ARPT  LGT RAIN  37  35  95 E12G20    29.84F WCI  29
ASHLAND        LGT RAIN  40  38  93 NE6       29.87F
HAYWARD        LGT RAIN  43  36  76 SE10G17   29.81F
SIREN          CLOUDY    47  35  64 SE10      29.78S
CUMBERLAND     DRIZZLE   41  34  75 SE13      29.79F
RICE LAKE      LGT RAIN  43  36  77 E9        29.83F
CHETEK         CLOUDY    44  37  75 E7        29.82F
LADYSMITH      CLOUDY    45  36  69 SE8       29.86S
EAU CLAIRE     NOT AVBL
MENOMONIE      DRIZZLE   46  36  68 E7        29.82S
NEW RICHMOND   LGT RAIN  45  35  67 SE10G17   29.78S
OSCEOLA        LGT RAIN  46  37  71 SE10      29.80F
$$

WIZ003>005-009-010-017-018-191200-
NORTH CENTRAL WISCONSIN

CITY           SKY/WX    TMP DP  RH WIND       PRES   REMARKS
MANITOWISH WTR RAIN      40  34  77 E5        29.91F
ARBOR VITAE    RAIN      43  30  61 SE7       29.92F
WOODRUFF       RAIN      43  30  61 SE7       29.92F
RHINELANDER    CLOUDY    44  22  41 E9        29.92F
EAGLE RIVER    CLOUDY    43  20  39 S5        29.94F
LAND O LAKES   CLOUDY    43  21  42 SE6       29.94S
PHILLIPS       CLOUDY    41  34  76 E10       29.85F
TOMAHAWK       RAIN      43  27  51 E9        29.89F
MEDFORD        CLOUDY    43  30  60 E8        29.86S
MERRILL        CLOUDY    46  23  39 SE9       29.89F
$$

WIZ029-030-035-036-043>047-191200-
CENTRAL WISCONSIN

CITY           SKY/WX    TMP DP  RH WIND       PRES   REMARKS
WAUSAU         CLOUDY    45  24  43 SE10      29.88F
MOSINEE        MOCLDY    45  23  42 E13       29.90F
MARSHFIELD     CLOUDY    46  28  49 SE12      29.86F
STEVENS POINT  CLOUDY    43  25  48 E8        29.90F
WAUPACA        CLOUDY    49  27  41 E12       29.92F
WAUTOMA        NOT AVBL
WISC RAPIDS    CLOUDY    48  24  39 E9        29.88F
CAMP DOUGLAS   NOT AVBL
$$

WIZ011>013-019>022-031-037>040-048>050-191200-
NORTHEAST WISCONSIN

CITY           SKY/WX    TMP DP  RH WIND       PRES   REMARKS
ANTIGO         CLOUDY    41  24  49 SE18G28   29.93F
SHAWANO        CLOUDY    45  30  56 E6        29.96F
OCONTO         FAIR      42  29  59 E5        29.99S
STURGEON BAY   MOCLDY    41  27  56 SE9       30.01S
GREEN BAY      CLOUDY    47  29  49 SE14      29.96S
MANITOWOC      NOT AVBL
APPLETON       CLOUDY    46  28  49 SE14G22   29.94S
CLINTONVILLE   MOCLDY    45  25  45 E5        29.95S
OSHKOSH        CLOUDY    49  29  46 SE17G25   29.91F
$$

WIZ032>034-041-042-053>061-191200-
SOUTHWEST WISCONSIN

CITY           SKY/WX    TMP DP  RH WIND       PRES   REMARKS
LA CROSSE      CLOUDY    51  34  52 SW7       29.83R
SPARTA         CLOUDY    46  32  59 NE3       29.84F
VIROQUA        CLOUDY    50  32  50 SE13      29.81F
BOSCOBEL       MOCLDY    53  34  48 CALM      29.82F
PRAIRIE DU CHI CLOUDY    54  36  50 E8        29.81S
PLATTEVILLE    CLOUDY    51  37  58 SE6       29.83S
$$

WIZ056-057-062-063-064-067-068-191200-
SOUTH CENTRAL WISCONSIN

CITY           SKY/WX    TMP DP  RH WIND       PRES   REMARKS
REEDSBURG      MOCLDY    51  31  47 SE7       29.85F
BARABOO/DELLS  MOCLDY    49  29  46 E8        29.86F
LONE ROCK      NOT AVBL
MINERAL POINT  MOCLDY    52  32  46 E13       29.82F
MADISON        MOCLDY    50  30  46 SE14      29.86F
MIDDLETON      PTCLDY    51  31  47 SE8       29.87F
WATERTOWN      PTCLDY    47  29  50 E13       29.89S
MONROE         PTCLDY    46  34  61 E7        29.84F
JANESVILLE     PTCLDY    52  30  43 E8        29.87S
$$

WIZ051-052-058>065-066-070>072-191200-
SOUTHEAST WISCONSIN

CITY           SKY/WX    TMP DP  RH WIND       PRES   REMARKS
MILWAUKEE      MOCLDY    43  31  62 E9        29.94F
WAUKESHA       CLEAR     43  28  56 E12       29.94S
MILWAUKEE/TIMM CLOUDY    45  28  53 E8        29.95F
RACINE         MOCLDY    43  31  62 E7        29.94F
BURLINGTON     PTCLDY    45  29  53 E8        29.91F
KENOSHA        PTCLDY    43  31  62 E9        29.91F
FOND DU LAC    CLOUDY    48  28  46 SE15      29.91F
SHEBOYGAN      MOCLDY    43  31  62 SE6       29.97F
WEST BEND      CLOUDY    45  28  53 E10       29.95S
JUNEAU         CLOUDY    46  29  51 E15       29.91F
$$

LSZ147-162-191200-
LAKE SUPERIOR

STATION/POSITION TIME  TEMP    WIND        PRES    WAVE
                       AIR SEA DIR/SP/G            HT/PER
                 (UTC) (F)     (DEG/KT/KT) (MB)    (FT/S)
DEVILS ISLAND    1000   36      80/ 16/ 18 1013.9F
PORT WING        1000   37      40/ 14/ 16 1011.2F
SAXON HARBOR     1000   40      CALM  / 21 1012.5F
$$

LMZ867-665-643>646-191200-
LAKE MICHIGAN

STATION/POSITION TIME  TEMP    WIND        PRES    WAVE
                       AIR SEA DIR/SP/G            HT/PER
                 (UTC) (F)     (DEG/KT/KT) (MB)    (FT/S)
CHAMBERS ISLAND  1000   43      70/  3/  7 1016.6F
NORTHPORT PIER   1001   40      90/ 11/ 13 1016.6F
KEWAUNEE LAKESHO 1000   41      70/  4/  6 1015.0F
SHEBOYGAN LAKESH 1000   44     130/  5/  6 1015.9F
PORT WASHINGTON  1040   44      90/  5/  6 1015.2F
MILWAUKEE LAKESH 1000   43      70/ 10/ 12   N/A
KENOSHA   LAKESH 1000   43      70/  6/  7 1013.5F
$$

TC  - TEMPERATURE IN CELSIUS
VSB - VISIBILITY IN STATUTE MILES
WCI - WIND CHILL INDEX
HX  - HEAT INDEX




USA.gov is the U.S. government's official web portal to all federal, state and local government web resources and services.